Regional Weather Roundup
Issued by NWS Northern Indiana

Home | Current Version | Previous Version | Graphics & Text | Print | Product List | Glossary On
Versions: 1 2 3 4 5 6 7 8 9 10 11 12 13 14 15 16 17 18 19 20 21 22 23 24 25 26 27 28 29 30 31 32 33 34 35 36 37 38 39 40 41 42 43 44 45 46 47 48 49 50
000
ASUS43 KIWX 281510
RWRIWX

KIWX WEATHER ROUNDUP
NATIONAL WEATHER SERVICE NORTHERN INDIANA
1100 AM EDT THU MAY 28 2015

NOTE: "FAIR" INDICATES FEW OR NO CLOUDS BELOW 12,000 FEET WITH NO
SIGNIFICANT WEATHER AND/OR OBSTRUCTIONS TO VISIBILITY.

* THESE STATIONS ARE NOT UNDER NWS QUALITY CONTROL. THEY ALSO MAY NOT
  REPORT WEATHER SUCH AS PRECIPITATION OR FOG.

INZ001>027-281600-
NORTHERN INDIANA

CITY           SKY/WX    TMP DP  RH WIND       PRES   REMARKS
GARY*          MOSUNNY   75  55  50 SE6       30.23R
VALPARAISO     SUNNY     74  55  51 SE8       30.24S
MICHIGAN CITY* SUNNY     73  55  53 SE5       30.24S
LAPORTE*       SUNNY     74  56  53 S5        30.25R
KNOX*          SUNNY     72  55  56 E7        30.23S
SOUTH BEND     SUNNY     72  56  57 VRB6      30.25S
ELKHART*       SUNNY     72  57  60 S5        30.26R
GOSHEN           N/A    N/A N/A N/A MISG      30.25R
MONTICELLO*    SUNNY     72  56  57 E6        30.22S
LOGANSPORT*    SUNNY     70  54  56 E6        30.24S
ROCHESTER*     SUNNY     73  59  60 E8        30.24F
WARSAW*        SUNNY     70  57  64 E6        30.25S
ANGOLA*        SUNNY     72  57  60 S7        30.25R
FORT WAYNE     MOSUNNY   70  60  70 E8        30.25R
HUNTINGTON*    SUNNY     70  61  71 E9        30.24S
PERU/GRISSOM   SUNNY     71  60  68 E10       30.22S
MARION*        SUNNY     70  56  61 E10       30.24R

$$
INZ028>050-281600-
CENTRAL INDIANA

CITY           SKY/WX    TMP DP  RH WIND       PRES   REMARKS
LAFAYETTE      SUNNY     71  58  63 E7        30.22S
KOKOMO*        SUNNY     72  61  68 E10       30.23R
MUNCIE*        SUNNY     72  60  66 E9        30.23R
INDIANAPOLIS   MOSUNNY   73  56  54 CALM      30.20S

$$
MIZ043>046-050>051-056>058-064>065-071>073-077>080-281600-
SOUTHWEST LOWER MICHIGAN

CITY           SKY/WX    TMP DP  RH WIND       PRES   REMARKS
BATTLE CREEK   SUNNY     72  55  55 S6        30.26R
BENTON HARBOR  SUNNY     72  57  59 S8        30.24R
COLDWATER*     SUNNY     72  57  58 SE6       30.25S
HILLSDALE*     SUNNY     73  52  46 SE7       30.26R
HOLLAND        SUNNY     73  59  61 SW6       30.24R
GRAND RAPIDS   SUNNY     73  58  59 S7        30.23S
KALAMAZOO      SUNNY     72  56  57 SE6       30.25R
STURGIS*       SUNNY     72  59  64 S7        30.25R
THREE RIVERS*  FAIR      73  55  52 SE6       30.25R

$$
OHZ001>008-015>018-024>025-281600-
NORTHWEST OHIO

CITY           SKY/WX    TMP DP  RH WIND       PRES   REMARKS
WAUSEON*       FAIR      72  63  73 E8        30.25S
DEFIANCE       SUNNY     72  59  63 VRB5      30.26R
FINDLAY        SUNNY     73  59  61 E12       30.24R
TOLEDO EXPRESS SUNNY     72  58  61 E9        30.25R
TOLEDO METCALF SUNNY     72  58  61 E12       30.26R
LIMA           SUNNY     73  62  68 E9        30.24S

$$
AND FOR LAKE MICHIGAN COASTAL AND OPEN LAKE BUOY OBSERVATIONS

STATION/POSITION TEMP    WIND        PRES    VSBY  WAVE
                 AIR SEA DIR/SP/G                  HT/PER
                 (F)     (DEG/KT/KT) (MB)    (MI)  (FT/S)
CALUMET HARBOR    66      80/  4/  5   N/A
MICHIGAN CITY     69      30/  5/  6   N/A
BURNS HARBOR      66     360/  2/  3 1024.0S
SAINT JOSEPH      62     180/  5/  7 1024.7R
SOUTH LAKE BUOY   45 38  200/  6/  8 1024.1R         0
4 MI NW BRIDGMAN  58 57  270/  2/  4   N/A           0
MICHIGAN CITY     60 54  110/  2/  4   N/A           0

$$
&&


USA.gov is the U.S. government's official web portal to all federal, state and local government web resources and services.